sat.trackr.live / text

‹ back to catalog

ONEWEB-0507

NORAD 54125 · 2022-138N

PAYLOAD ACTIVE UNKNOWN

§ Identity

Operator
Country
UK
Launch date
2022-10-22
Launch site
SRILR
Launch vehicle
Mass (kg)
RCS (m²)

Purposes: comms

External: N2YO · Heavens-Above · Gunter

§ Orbital elements

Epoch: 2026-05-25T03:32:57.054048Z

Period
109.11 min
Inclination
87.9150°
Eccentricity
0.0001661
Mean motion
13.19726303 rev/d
Perigee alt
1,184.5 km
Apogee alt
1,187.0 km
Semi-major
7,563.9 km
B*
-1.9751e-5
RAAN
309.5692°
Arg perigee
88.8320°
Mean anomaly
271.3003°
Rev number
17,381

§ Raw data

ONEWEB-05071 54125U 22138N   26145.14788257  .00000005  00000+0 -19751-4 0  99952 54125  87.9150 309.5692 0001661  88.8320 271.3003 13.19726303173817

JSON: /api/v1/satellites/54125 · /tle

For live sub-satellite position, see the globe view (requires WebGL).

§ Visibility from observer

Set your observer location to see the next 7 days of passes ≥ 10°. The values pass through the URL so the page stays shareable.

No JS? Fill the form by hand. The geolocation button needs JavaScript.